Location: Glasgow
(55.8642°N, 4.2518°W)
Time: 18:49:13
(UTC+01:00)

ISS - Pass Details

Date: 09 October 2017
Orbit: 401 x 408 km, 51.6° (Epoch: 22 October)

Event Time Altitude Azimuth Distance (km) Brightness Sun altitude
Rises 19:18:57 0° 267° (W) 2,325 2.7 -7.5°
Reaches altitude 10° 19:21:08 10° 258° (WSW) 1,466 0.6 -7.8°
Maximum altitude 19:24:09 35° 191° (S) 682 -2.6 -8.2°
Drops below altitude 10° 19:27:11 10° 124° (ESE) 1,468 -1.5 -8.6°
Enters shadow 19:27:25 - 122° (ESE) 1,552 -1.4 -8.7°
